星链-30788 (STARLINK-30788 )

导读

STARLINK-30788是美国SpaceX星链星座的卫星,于2023年10月29日发射升空,归属星链互联网星座组网,是美国打造全球卫星互联网服务的组成部分。它依托星链系统架构,为全球提供低延迟、高速率的卫星互联网接入,覆盖偏远地区等传统网络难以抵达的区域,推动全球互联覆盖范围拓展。

Basic Information
目录编号:
58159
目录名称:
STARLINK-30788
国际标识:
2023-166K
轨道中心:
EARTH
卫星名称:
星链-30788
卫星全名:
星链-30788 (STARLINK-30788 )
卫星状态:
在轨 (已飞行1041 天)
发射日期:
2023-10-29 UTC
国别 :
美国 (US)
星等 :
--
Orbit Information
数据来源 国际轨道数据 AOE轨道数据
星历时间 2026-09-04T09:17:01+0800
7小时前
查看轨道信息
2026-09-03T04:00:00+0800
1天前
查看轨道信息
半长轴 6846.964km 6848.864km
偏心率 0.0003583 0.0001224
轨道倾角 53.159° 53.159°
近地点辐角 205.892° 86.504°
升交点赤经 109.995° 115.677°
平近点角 154.191° 20.378°
近地点 466.373km 469.888km
远地点 471.281km 471.566km
周期 93.974分钟 94.013分钟
每日圈数 15.323423 15.317045
Detailed Information
固有亮度:
5
最大亮度:
0.3
卫星平台:
Starlink v2.0 mini
覆盖范围:
全球
运营商:
太空探索技术公司
运营商所在国:
美国
制造商(研发单位):
太空探索技术公司
制造商所在国:
美国
使用方式:
暂无
Satellite Introduction
星链(Starlink)计划是由太空探索技术公司(SpaceX)提出的一个巨型低轨卫星互联网星座项目,计划在2019年至2024年间在太空搭建由约1.2万颗卫星组成的“星链”网络,其中1584颗将部署在地球上空550千米处的近地轨道,并从2020年开始工作。该卫星仍在工作。
2D Orbit Map
3D Orbit Map
Orbit Altitude Analysis Chart
Orbit Inclination Analysis Chart
Orbit Comprehensive Analysis Chart
View Comprehensive Chart
Conjunction Data List
Event ID Objects TCA Miss Dist (km) Collision Risk Probability Collision Risk Index (CRI) Action
CDM_260827-183705-815906-190122
OBJECT H (61901)
2026-08-27T
18:37:33+0000
2.230 km
极远距离
2.200838E-6 低风险 0.42
CDM_260905-121904-649505-815921
SALSAT (46495)
2026-09-05T
12:19:17+0000
2.637 km
极远距离
1.580659E-6 低风险 0.39
CDM_260905-004505-815906-878821
2026-09-05T
00:45:42+0000
2.831 km
极远距离
1.43978E-6 低风险 0.38